• In Czech Republic
  • List of Countries
  • For 7 days
  • Water Temperature
  • Satellite Maps
  • Weather Map
  • Weather Widgets
  • user-avatar
    Login

    Hourly Weather Khulna

    Today, 17 February, Saturday

    Time Temperature Precipitation Wind Pressure Humidity
    00:00 +20°C° 0 mm 0 mps 759 mmHg 43%
    01:00 +19°C° 0 mm 0 mps 759 mmHg 43%
    02:00 +21°C° 0 mm 1 mps 758 mmHg 44%
    03:00 +21°C° 0 mm 1 mps 758 mmHg 44%
    04:00 +21°C° 0 mm 1 mps 758 mmHg 46%
    05:00 +20°C° 0 mm 1 mps 758 mmHg 47%
    06:00 +20°C° 0 mm 1 mps 758 mmHg 48%
    07:00 +22°C° 0 mm 1 mps 759 mmHg 44%
    08:00 +24°C° 0 mm 1 mps 759 mmHg 39%
    09:00 +26°C° 0 mm 1 mps 760 mmHg 35%
    10:00 +28°C° 0 mm 1 mps 759 mmHg 31%
    11:00 +30°C° 0 mm 2 mps 759 mmHg 28%
    12:00 +31°C° 0 mm 1 mps 758 mmHg 27%
    13:00 +32°C° 0 mm 2 mps 758 mmHg 26%
    14:00 +32°C° 0 mm 2 mps 757 mmHg 24%
    15:00 +34°C° 0 mm 2 mps 756 mmHg 23%
    16:00 +31°C° 0 mm 2 mps 756 mmHg 25%
    17:00 +30°C° 0 mm 2 mps 756 mmHg 28%
    18:00 +27°C° 0 mm 1 mps 756 mmHg 32%
    19:00 +26°C° 0 mm 1 mps 757 mmHg 35%
    20:00 +25°C° 0 mm 2 mps 757 mmHg 38%
    21:00 +25°C° 0 mm 2 mps 757 mmHg 41%
    22:00 +24°C° 0 mm 1 mps 757 mmHg 42%
    23:00 +24°C° 0 mm 1 mps 757 mmHg 44%

    Tomorrow, 18 February, Sunday

    Time Temperature Precipitation Wind Pressure Humidity
    00:00 +23°C° 0 mm 1 mps 757 mmHg 46%
    01:00 +23°C° 0 mm 1 mps 757 mmHg 47%
    02:00 +22°C° 0 mm 1 mps 757 mmHg 47%
    03:00 +22°C° 0 mm 1 mps 757 mmHg 48%
    04:00 +21°C° 0 mm 1 mps 757 mmHg 49%
    05:00 +21°C° 0 mm 1 mps 757 mmHg 50%
    06:00 +21°C° 0 mm 1 mps 757 mmHg 51%
    07:00 +23°C° 0 mm 1 mps 758 mmHg 46%
    08:00 +25°C° 0 mm 1 mps 758 mmHg 42%
    09:00 +27°C° 0 mm 1 mps 759 mmHg 37%
    10:00 +29°C° 0 mm 1 mps 759 mmHg 33%
    11:00 +31°C° 0 mm 1 mps 759 mmHg 28%
    12:00 +32°C° 0 mm 1 mps 758 mmHg 24%
    13:00 +34°C° 0 mm 2 mps 758 mmHg 22%
    14:00 +34°C° 0 mm 2 mps 757 mmHg 19%
    15:00 +35°C° 0 mm 2 mps 757 mmHg 17%
    16:00 +32°C° 0 mm 2 mps 757 mmHg 19%
    17:00 +31°C° 0 mm 2 mps 756 mmHg 22%
    18:00 +29°C° 0 mm 1 mps 756 mmHg 24%
    19:00 +28°C° 0 mm 1 mps 757 mmHg 29%
    20:00 +27°C° 0 mm 1 mps 757 mmHg 33%
    21:00 +25°C° 0 mm 2 mps 758 mmHg 38%
    22:00 +25°C° 0 mm 2 mps 758 mmHg 43%
    23:00 +24°C° 0 mm 2 mps 758 mmHg 48%

    Day after tomorrow, 19 February, Monday

    Time Temperature Precipitation Wind Pressure Humidity
    00:00 +23°C° 0 mm 2 mps 758 mmHg 53%
    01:00 +23°C° 0 mm 2 mps 758 mmHg 55%
    02:00 +23°C° 0 mm 2 mps 758 mmHg 57%
    03:00 +21°C° 0 mm 2 mps 757 mmHg 59%
    04:00 +21°C° 0 mm 2 mps 758 mmHg 59%
    05:00 +21°C° 0 mm 2 mps 758 mmHg 59%
    06:00 +21°C° 0 mm 1 mps 758 mmHg 60%
    07:00 +24°C° 0 mm 1 mps 759 mmHg 52%
    08:00 +26°C° 0 mm 1 mps 759 mmHg 45%
    09:00 +28°C° 0 mm 1 mps 760 mmHg 38%
    10:00 +30°C° 0 mm 1 mps 760 mmHg 33%
    11:00 +32°C° 0 mm 1 mps 759 mmHg 28%
    12:00 +34°C° 0 mm 1 mps 759 mmHg 22%
    13:00 +35°C° 0 mm 2 mps 758 mmHg 21%
    14:00 +36°C° 0 mm 2 mps 758 mmHg 20%
    15:00 +36°C° 0 mm 2 mps 757 mmHg 19%
    16:00 +35°C° 0 mm 2 mps 757 mmHg 22%
    17:00 +32°C° 0 mm 2 mps 757 mmHg 25%
    18:00 +31°C° 0 mm 2 mps 757 mmHg 27%
    19:00 +29°C° 0 mm 2 mps 757 mmHg 31%
    20:00 +28°C° 0 mm 2 mps 758 mmHg 35%
    21:00 +27°C° 0 mm 2 mps 758 mmHg 39%
    22:00 +26°C° 0 mm 2 mps 758 mmHg 41%
    23:00 +25°C° 0 mm 2 mps 758 mmHg 44%

    20 February, Tuesday

    Time Temperature Precipitation Wind Pressure Humidity
    00:00 +25°C° 0 mm 2 mps 758 mmHg 46%
    01:00 +24°C° 0 mm 2 mps 758 mmHg 46%
    02:00 +24°C° 0 mm 2 mps 758 mmHg 47%
    03:00 +24°C° 0 mm 2 mps 758 mmHg 47%
    04:00 +23°C° 0 mm 2 mps 758 mmHg 47%
    05:00 +23°C° 0 mm 2 mps 758 mmHg 46%
    06:00 +21°C° 0 mm 2 mps 758 mmHg 45%
    07:00 +24°C° 0 mm 2 mps 759 mmHg 41%
    08:00 +26°C° 0 mm 2 mps 760 mmHg 37%
    09:00 +28°C° 0 mm 2 mps 760 mmHg 32%
    10:00 +30°C° 0 mm 2 mps 760 mmHg 29%
    11:00 +32°C° 0 mm 2 mps 759 mmHg 25%
    12:00 +35°C° 0 mm 1 mps 759 mmHg 22%
    13:00 +36°C° 0 mm 2 mps 758 mmHg 21%
    14:00 +36°C° 0 mm 2 mps 757 mmHg 19%
    15:00 +37°C° 0 mm 3 mps 756 mmHg 18%
    16:00 +35°C° 0 mm 2 mps 756 mmHg 21%
    17:00 +34°C° 0 mm 2 mps 756 mmHg 23%
    18:00 +31°C° 0 mm 1 mps 756 mmHg 25%
    19:00 +30°C° 0 mm 2 mps 757 mmHg 28%
    20:00 +29°C° 0 mm 2 mps 757 mmHg 30%
    21:00 +28°C° 0 mm 2 mps 758 mmHg 33%
    22:00 +27°C° 0 mm 2 mps 758 mmHg 34%
    23:00 +26°C° 0 mm 1 mps 757 mmHg 36%

    21 February, Wednesday

    Time Temperature Precipitation Wind Pressure Humidity
    00:00 +26°C° 0 mm 1 mps 757 mmHg 37%
    01:00 +25°C° 0 mm 1 mps 757 mmHg 38%
    02:00 +25°C° 0 mm 1 mps 757 mmHg 38%
    03:00 +24°C° 0 mm 1 mps 756 mmHg 38%
    04:00 +24°C° 0 mm 1 mps 757 mmHg 39%
    05:00 +23°C° 0 mm 1 mps 757 mmHg 40%
    06:00 +23°C° 0 mm 1 mps 757 mmHg 41%
    07:00 +25°C° 0 mm 1 mps 758 mmHg 38%
    08:00 +27°C° 0 mm 1 mps 758 mmHg 35%
    09:00 +29°C° 0 mm 1 mps 759 mmHg 31%
    10:00 +31°C° 0 mm 1 mps 758 mmHg 28%
    11:00 +34°C° 0 mm 2 mps 758 mmHg 24%
    12:00 +36°C° 0 mm 2 mps 758 mmHg 20%
    13:00 +36°C° 0 mm 3 mps 757 mmHg 19%
    14:00 +37°C° 0 mm 3 mps 756 mmHg 17%
    15:00 +37°C° 0 mm 4 mps 755 mmHg 15%
    16:00 +36°C° 0 mm 3 mps 755 mmHg 18%
    17:00 +34°C° 0 mm 3 mps 755 mmHg 20%
    18:00 +31°C° 0 mm 2 mps 755 mmHg 22%
    19:00 +30°C° 0 mm 2 mps 755 mmHg 24%
    20:00 +29°C° 0 mm 2 mps 756 mmHg 26%
    21:00 +27°C° 0 mm 1 mps 756 mmHg 28%
    22:00 +27°C° 0 mm 1 mps 756 mmHg 29%
    23:00 +26°C° 0 mm 1 mps 756 mmHg 31%

    22 February, Thursday

    Time Temperature Precipitation Wind Pressure Humidity
    00:00 +25°C° 0 mm 1 mps 756 mmHg 32%
    01:00 +25°C° 0 mm 1 mps 756 mmHg 33%
    02:00 +24°C° 0 mm 1 mps 756 mmHg 34%
    03:00 +24°C° 0 mm 1 mps 756 mmHg 34%
    04:00 +23°C° 0 mm 1 mps 756 mmHg 35%
    05:00 +23°C° 0 mm 1 mps 756 mmHg 35%
    06:00 +21°C° 0 mm 0 mps 756 mmHg 36%
    07:00 +23°C° 0 mm 0 mps 757 mmHg 32%
    08:00 +25°C° 0 mm 0 mps 757 mmHg 29%
    09:00 +28°C° 0 mm 0 mps 758 mmHg 26%
    10:00 +31°C° 0 mm 1 mps 758 mmHg 23%
    11:00 +33°C° 0 mm 1 mps 757 mmHg 21%
    12:00 +36°C° 0 mm 2 mps 757 mmHg 18%
    13:00 +36°C° 0 mm 3 mps 756 mmHg 17%
    14:00 +37°C° 0 mm 3 mps 756 mmHg 16%
    15:00 +37°C° 0 mm 4 mps 755 mmHg 15%
    16:00 +36°C° 0 mm 3 mps 755 mmHg 17%
    17:00 +34°C° 0 mm 3 mps 755 mmHg 20%
    18:00 +31°C° 0 mm 2 mps 755 mmHg 22%
    19:00 +30°C° 0 mm 2 mps 756 mmHg 24%
    20:00 +29°C° 0 mm 2 mps 756 mmHg 25%
    21:00 +28°C° 0 mm 1 mps 757 mmHg 27%
    22:00 +27°C° 0 mm 1 mps 757 mmHg 28%
    23:00 +27°C° 0 mm 1 mps 757 mmHg 29%
    Show more